Погода в Урожайном

Россия / Кабардино-Балкарская Республика     43°41′53″N   44°12′55″E
темп.,
°C
ветер,
м/с
пор.,
м/с
влажн.,
%
обл.,
%
осадки,
мм/ч
давл.,
гПа
погр.,
м
18 мая, вт
вт1800:00+17зсз7148899 0.3 1008592
03:00+15зсз51192100 2.1 1009497
06:00+16зсз41188100 0.1 1010536
09:00+18зсз577774 0.2 1011727
12:00+20ссз336517 0.1 1012995
15:00+23с125683 0.1 10111323
18:00+22сз126560 0.0 1011143
21:00+18св11740 0.0 101211
19 мая, ср
ср1900:00+15ююв11840 0.0 101111
03:00+14в11880 0.0 101011
06:00+15в24855 0.0 1009125
09:00+21вюв35621 0.0 1008854
12:00+26ссв12506 0.0 10091447
15:00+20сз101473100 0.0 1011589
18:00+15сз41090100 2.1 1015526
21:00+15юз2391100 2.4 101790
20 мая, чт
чт2000:00+15ю249013 0.0 101789
03:00+13ююв11885 0.0 101710
06:00+14вюв248665 0.0 1017117
09:00+19вюв57571 0.0 10171164
12:00+23вюв67470 0.0 10151444
15:00+24в56450 0.0 10141449
18:00+22в35619 0.0 1014115
21:00+16вюв49665 0.0 1015162
21 мая, пт
пт2100:00+13в22710 0.0 101422
03:00+12в22780 0.0 101317
06:00+14в12780 0.0 101381
09:00+21всв34620 0.0 1012474
12:00+26в45523 0.0 1011854
15:00+29в45435 0.0 10101257
18:00+25в510580 0.0 1009293
21:00+18всв49703 0.0 1010161
22 мая, сб
сб2200:00+15в3376100 0.0 100947
03:00+14в228214 0.0 100912
06:00+16всв2280100 0.0 100874
09:00+23всв226322 0.0 1007372
12:00+28всв344996 0.0 1006784
15:00+31вюв23415 0.0 10051239
18:00+29ссв235681 0.0 100449
21:00+21св2269100 0.0 100718